[[{"header":{"parameterUnit":"m.s-1","parameterCategory":1,"la1":30.2991,"la2":30.254,"lo1":-89.0895,"lo2":-89.0444,"dy":0.0017,"dx":0.0017,"nx":28,"ny":28,"refTime":"2023-10-12T03:00:00:Z","depth":0,"parameterNumber":2,"parameterNumberName":"U-component_of_WINDS"},"data":[0,0,0,0,0,0,0,0,0,0,0,0,0,0,0,0,0,0,0,0,0,0,0,0,0,0,0,0,0,0,0,0,0,0,0,0,0,0,0,0,0,0,0,0,0,0,0,0,0,0,0,0,0,0,0,0,0,0,-4.3825,-4.3826,0,-4.3958,-4.3959,-4.3961,-4.386,-4.3856,-4.3851,-4.3847,-4.399,-4.3998,-4.4005,0,0,0,0,0,0,0,0,0,0,0,0,0,-4.3491,-4.3498,-4.3825,-4.3826,-4.3828,-4.3957,-4.3959,-4.3961,-4.3861,-4.3855,-4.385,-4.3845,-4.3987,-4.3997,-4.4006,0,0,0,0,0,0,0,0,0,0,0,0,0,-4.3632,-4.35,-4.3824,-4.3793,-4.3792,-4.3957,-4.3959,-4.3961,-4.3862,-4.3855,-4.3849,-4.3842,-4.3984,-4.3996,-4.4007,-4.4212,0,0,-4.4044,-4.4049,0,0,0,0,0,0,0,0,-4.3624,-4.3644,-4.3796,-4.3796,-4.3794,-4.3885,-4.3894,-4.4046,-4.3863,-4.3836,-4.3847,-4.3839,-4.3961,-4.3974,-4.4014,-4.4219,-4.4225,-4.4045,-4.4052,-4.4057,-4.406,0,0,0,0,0,0,0,-4.3614,-4.3638,-4.3877,-4.3799,-4.3798,-4.3775,-4.3788,-4.3922,-4.3934,-4.3837,-4.383,-4.3847,-4.3959,-4.4003,-4.4016,-4.4227,-4.4044,-4.4055,-4.4062,-4.4067,-4.4611,-4.4617,0,0,0,0,0,0,-4.3606,-4.363,-4.3873,-4.3881,-4.3691,-4.3786,-4.3801,-4.3863,-4.3932,-4.3936,-4.3853,-4.3842,-4.3986,-4.4003,-4.4021,-4.4268,-4.4057,-4.4068,-4.4075,-4.4603,-4.4612,-4.462,0,0,0,0,0,0,-4.36,-4.3629,-4.3868,-4.3754,-4.3783,-4.3799,-4.387,-4.3869,-4.3912,-4.3943,-4.3946,-4.3895,-4.3981,-4.4004,-4.4166,-4.4272,-4.4073,-4.4084,-4.4595,-4.4606,-4.4616,-4.4763,0,0,0,0,0,0,-4.359,-4.3627,-4.3704,-4.3756,-4.3789,-4.4009,-4.3876,-4.3876,-4.3932,-4.392,-4.3983,-4.3988,-4.3978,-4.4149,-4.4178,-4.4284,-4.4093,-4.4585,-4.46,-4.4613,-4.4748,-4.4777,-4.4802,0,0,0,0,0,-4.3579,-4.374,-4.3708,-4.3738,-4.3885,-4.4015,-4.4034,-4.4017,-4.3941,-4.4019,-4.404,-4.3986,-4.4255,-4.4166,-4.4198,-4.431,-4.4579,-4.4596,-4.4612,-4.4736,-4.4772,-4.4801,0,0,0,0,0,0,-4.3702,-4.3747,-4.3711,-4.3894,-4.3951,-4.3997,-4.4096,-4.4055,-4.4136,-4.4121,-4.4099,-4.4114,-4.4285,-4.4312,-4.4213,-4.4513,-4.4405,-4.4429,-4.4489,-4.4523,-4.4549,-4.454,-4.4103,0,0,0,0,0,-4.3749,-4.3849,-4.3884,-4.4042,-4.4072,-4.408,-4.4136,-4.4118,-4.4177,-4.4201,-4.4233,-4.4295,-4.4393,-4.4459,-4.4551,-4.4751,-4.4765,-4.4844,-4.487,-4.4892,-4.4914,-4.5025,-4.5062,-4.4674,-4.4674,-4.4674,0,0,-4.3851,-4.3887,-4.3952,-4.4068,-4.411,-4.4217,-4.4101,-4.4218,-4.4298,-4.422,-4.4374,-4.44,-4.4467,-4.465,-4.4732,-4.4679,-4.5024,-4.4913,-4.493,-4.4941,-4.5046,-4.5083,-4.5115,-4.4685,-4.4683,-4.4682,0,0,-4.409,-4.4126,-4.4263,-4.4308,-4.4372,-4.4376,-4.4409,-4.4462,-4.4475,-4.4629,-4.4574,-4.4669,-4.4839,-4.489,-4.4938,-4.5197,-4.5152,-4.5228,-4.5369,-4.5478,-4.5508,-4.5535,-4.5632,-4.5666,-4.5249,-4.5249,-4.525,0,-4.4208,-4.4364,-4.4339,-4.4461,-4.4515,-4.4447,-4.4588,-4.4632,-4.4725,-4.4765,-4.4703,-4.4916,-4.4956,-4.5151,-4.5214,-4.5254,-4.5294,-4.5222,-4.5505,-4.5532,-4.5557,-4.5649,-4.5685,-4.5258,-4.5257,-4.5256,-4.5255,0,-4.4508,-4.4618,-4.4721,-4.4811,-4.4876,-4.5006,-4.5004,-4.5073,-4.505,-4.5061,-4.522,-4.5266,-4.5368,-4.5412,-4.539,-4.5605,-4.557,-4.5507,-4.5399,-4.5604,-4.569,-4.5724,-4.5271,-4.5268,-4.5265,-4.5263,0,0,-4.4831,-4.4904,-4.4943,-4.4984,-4.505,-4.5136,-4.5264,-4.5361,-4.5423,-4.5489,-4.5599,-4.5744,-4.5686,-4.5741,-4.5725,-4.582,-4.6027,-4.5746,-4.5747,-4.58,-4.6271,-4.632,-4.6361,-4.5996,-4.6002,-4.6007,-4.6266,0,-4.5076,-4.5298,-4.5279,-4.5491,-4.5593,-4.553,-4.5643,-4.5697,-4.5711,-4.5802,-4.5817,-4.5922,-4.5836,-4.587,-4.596,-4.5982,-4.6122,-4.5963,-4.6102,-4.6107,-4.609,-4.6405,-4.6458,-4.67,-4.6299,-4.6305,-4.6309,0,-4.5392,-4.5468,-4.5689,-4.5741,-4.5784,-4.5885,-4.5974,-4.606,-4.6122,-4.6125,-4.6187,-4.6155,-4.6288,-4.6173,-4.6358,-4.6251,-4.6306,-4.6326,-4.6335,-4.635,-4.6223,-4.6433,-4.6776,-4.6814,-4.6361,-4.6356,-4.6353,0,-4.5609,-4.5767,-4.592,-4.5956,-4.602,-4.6094,-4.6124,-4.6178,-4.6239,-4.6317,-4.6357,-4.645,-4.6502,-4.6576,-4.6572,-4.6488,-4.6761,-4.6645,-4.6771,-4.6772,-4.6835,-4.6832,-4.7196,-4.6864,-4.6864,-4.6863,-4.6862,0,-4.5887,-4.6026,-4.6019,-4.6114,-4.6268,-4.6246,-4.6401,-4.6423,-4.6473,-4.6573,-4.6523,-4.6619,-4.6605,-4.6702,-4.6699,-4.6855,-4.6878,-4.6888,-4.6886,-4.6894,-4.6894,-4.6933,-4.6918,-4.6873,-4.6871,-4.6869,-4.6867,0,-4.6158,-4.6158,-4.6322,-4.6368,-4.6383,-4.6496,-4.6537,-4.6629,-4.6637,-4.6765,-4.6794,-4.6809,-4.6921,-4.6922,-4.7051,-4.7049,-4.7241,-4.7218,-4.722,-4.7217,-4.7344,-4.7334,-4.7749,-4.7804,-4.7434,-4.7437,-4.744,0,-4.6337,-4.6442,-4.65,-4.6563,-4.6598,-4.6699,-4.676,-4.6743,-4.6809,-4.6887,-4.6971,-4.7077,-4.7161,-4.7343,-4.7368,-4.7466,-4.7448,-4.7587,-4.7463,-4.7469,-4.7455,-4.7451,-4.7463,-4.7613,-4.7617,-4.762,-4.7623,0,-4.6657,-4.6651,-4.674,-4.683,-4.6904,-4.6974,-4.7039,-4.7093,-4.7084,-4.7161,-4.7274,-4.7339,-4.7469,-4.7578,-4.7673,-4.7707,-4.7667,-4.7661,-4.7696,-4.7708,-4.7706,-4.7713,-4.729,-4.7653,-4.765,-4.7648,-4.7646,-4.7645,-4.689,-4.6981,-4.7037,-4.7138,-4.7184,-4.7246,-4.7335,-4.7354,-4.7447,-4.7551,-4.7535,-4.7662,-4.7723,-4.7846,-4.7889,-4.799,-4.7942,-4.7992,-4.8005,-4.8019,-4.8035,-4.7687,-4.8006,-4.8006,-4.8005,-4.8004,-4.8003,0,-4.721,-4.7242,-4.7335,-4.7427,-4.7507,-4.7457,-4.7526,-4.7598,-4.771,-4.7768,-4.7852,-4.7983,-4.8088,-4.812,-4.8222,-4.8297,-4.8281,-4.8325,-4.8321,-4.8331,-4.8069,-4.8031,-4.8336,-4.8336,-4.8336,-4.8336,-4.8336,-4.8336,-4.7386,-4.7539,-4.7541,-4.7718,-4.7749,-4.7872,-4.7916,-4.7974,-4.8021,-4.8169,-4.8255,-4.8274,-4.8324,-4.8429,-4.8524,-4.8531,-4.8573,-4.8626,-4.8626,-4.8382,-4.8349,-4.8317,-4.8281,-4.8634,-4.8634,-4.8879,-4.8881,-4.8883]},{"header":{"parameterUnit":"m.s-1","parameterCategory":1,"la1":30.2991,"la2":30.254,"lo1":-89.0895,"lo2":-89.0444,"dy":0.0017,"dx":0.0017,"nx":28,"ny":28,"refTime":"2023-10-12T03:00:00:Z","depth":0,"parameterNumber":3,"parameterNumberName":"V-component_of_WINDS"},"data":[0,0,0,0,0,0,0,0,0,0,0,0,0,0,0,0,0,0,0,0,0,0,0,0,0,0,0,0,0,0,0,0,0,0,0,0,0,0,0,0,0,0,0,0,0,0,0,0,0,0,0,0,0,0,0,0,0,0,-10.2826,-10.2826,0,-10.276,-10.2759,-10.2759,-10.2528,-10.2523,-10.2517,-10.2512,-10.2449,-10.2452,-10.2455,0,0,0,0,0,0,0,0,0,0,0,0,0,-10.2756,-10.2758,-10.2826,-10.2826,-10.2825,-10.276,-10.2759,-10.2758,-10.2529,-10.2522,-10.2516,-10.251,-10.2448,-10.2452,-10.2456,0,0,0,0,0,0,0,0,0,0,0,0,0,-10.2748,-10.2759,-10.2827,-10.2702,-10.269,-10.276,-10.2759,-10.2758,-10.253,-10.2522,-10.2514,-10.2507,-10.2447,-10.2452,-10.2456,-10.2643,0,0,-10.2471,-10.2473,0,0,0,0,0,0,0,0,-10.2749,-10.2751,-10.2721,-10.2711,-10.2698,-10.2644,-10.2711,-10.272,-10.2532,-10.2591,-10.2512,-10.2503,-10.2521,-10.2519,-10.2524,-10.264,-10.2637,-10.2471,-10.2474,-10.2476,-10.2478,0,0,0,0,0,0,0,-10.275,-10.2752,-10.28,-10.2721,-10.2707,-10.265,-10.2641,-10.2712,-10.2601,-10.2585,-10.2568,-10.2564,-10.2513,-10.252,-10.2521,-10.2636,-10.2471,-10.2475,-10.2478,-10.248,-10.2898,-10.2906,0,0,0,0,0,0,-10.2767,-10.2754,-10.2802,-10.2798,-10.2704,-10.2658,-10.2647,-10.2669,-10.2599,-10.2581,-10.257,-10.2553,-10.2516,-10.2515,-10.2518,-10.2728,-10.2476,-10.2481,-10.2483,-10.289,-10.29,-10.2909,0,0,0,0,0,0,-10.2767,-10.2774,-10.2805,-10.2772,-10.2771,-10.2668,-10.2695,-10.2672,-10.2679,-10.2588,-10.2567,-10.2598,-10.2509,-10.2511,-10.2612,-10.2723,-10.2483,-10.2487,-10.288,-10.2893,-10.2904,-10.3154,0,0,0,0,0,0,-10.2766,-10.2775,-10.2845,-10.2775,-10.2774,-10.2901,-10.2701,-10.2677,-10.2687,-10.2664,-10.2608,-10.2591,-10.2503,-10.2606,-10.2617,-10.2725,-10.2491,-10.287,-10.2886,-10.29,-10.3136,-10.3174,-10.3206,0,0,0,0,0,-10.2764,-10.2919,-10.2849,-10.2856,-10.2858,-10.2908,-10.2907,-10.2801,-10.2697,-10.2766,-10.2707,-10.2593,-10.271,-10.2619,-10.2629,-10.274,-10.2862,-10.2881,-10.2899,-10.312,-10.3166,-10.3205,0,0,0,0,0,0,-10.3007,-10.2908,-10.2829,-10.2966,-10.2947,-10.2869,-10.2952,-10.2854,-10.2865,-10.2844,-10.2713,-10.2702,-10.2822,-10.2791,-10.2692,-10.2915,-10.2767,-10.2788,-10.2931,-10.2974,-10.3009,-10.3014,-10.2495,0,0,0,0,0,-10.3076,-10.3123,-10.3035,-10.3164,-10.3158,-10.3058,-10.3075,-10.2995,-10.297,-10.2962,-10.291,-10.2892,-10.2923,-10.2947,-10.2972,-10.313,-10.3114,-10.3212,-10.3247,-10.3277,-10.3297,-10.3376,-10.3418,-10.297,-10.2969,-10.2969,0,0,-10.3221,-10.3172,-10.321,-10.3212,-10.3187,-10.3239,-10.3053,-10.3116,-10.3153,-10.2972,-10.3063,-10.3025,-10.2995,-10.3126,-10.318,-10.3104,-10.3417,-10.33,-10.3324,-10.3328,-10.3399,-10.3442,-10.3479,-10.2982,-10.298,-10.2978,0,0,-10.3509,-10.3478,-10.3581,-10.3559,-10.3523,-10.3455,-10.348,-10.3416,-10.3383,-10.3472,-10.3336,-10.3379,-10.3438,-10.3421,-10.3421,-10.3701,-10.3596,-10.3713,-10.3897,-10.3976,-10.4011,-10.4042,-10.414,-10.4177,-10.3733,-10.3734,-10.3734,0,-10.3693,-10.3765,-10.3647,-10.3718,-10.3722,-10.3557,-10.366,-10.3646,-10.3622,-10.3629,-10.3543,-10.361,-10.3579,-10.3702,-10.377,-10.3776,-10.38,-10.3718,-10.4015,-10.4045,-10.4072,-10.4164,-10.4201,-10.3748,-10.3747,-10.3745,-10.3744,0,-10.3991,-10.4043,-10.4131,-10.4108,-10.4122,-10.421,-10.4105,-10.4134,-10.4052,-10.3994,-10.4086,-10.4042,-10.4054,-10.4077,-10.4,-10.4189,-10.4142,-10.4038,-10.3886,-10.4131,-10.4215,-10.4249,-10.3769,-10.3763,-10.3759,-10.3756,0,0,-10.4433,-10.4341,-10.4375,-10.4361,-10.4309,-10.4347,-10.4427,-10.4436,-10.4462,-10.4451,-10.4513,-10.4566,-10.4468,-10.4468,-10.4386,-10.4456,-10.4678,-10.4342,-10.434,-10.4405,-10.4882,-10.496,-10.5003,-10.4608,-10.4615,-10.462,-10.4884,0,-10.4705,-10.4833,-10.4728,-10.4877,-10.4922,-10.4765,-10.4834,-10.481,-10.4757,-10.4788,-10.4729,-10.4768,-10.4637,-10.4635,-10.4697,-10.4638,-10.4772,-10.4618,-10.4666,-10.4669,-10.4676,-10.5047,-10.5129,-10.5381,-10.4916,-10.4922,-10.4926,0,-10.504,-10.504,-10.5193,-10.5127,-10.5142,-10.5206,-10.5204,-10.5237,-10.5206,-10.5162,-10.5161,-10.506,-10.5133,-10.4985,-10.5084,-10.4981,-10.4995,-10.4969,-10.4976,-10.4975,-10.4812,-10.5055,-10.5459,-10.5496,-10.4977,-10.4973,-10.4969,0,-10.5344,-10.5383,-10.5478,-10.5471,-10.5398,-10.5446,-10.5418,-10.5379,-10.539,-10.539,-10.5396,-10.5406,-10.5411,-10.542,-10.5325,-10.5226,-10.5436,-10.528,-10.5401,-10.5404,-10.5452,-10.545,-10.5862,-10.5464,-10.5463,-10.5463,-10.5462,0,-10.5659,-10.5758,-10.5612,-10.5671,-10.5777,-10.5655,-10.5764,-10.572,-10.5686,-10.5733,-10.56,-10.5647,-10.5518,-10.5553,-10.5479,-10.5571,-10.5576,-10.5542,-10.5521,-10.5553,-10.5557,-10.5559,-10.5539,-10.5472,-10.547,-10.5468,-10.5467,0,-10.6016,-10.5923,-10.6016,-10.5938,-10.592,-10.6002,-10.5935,-10.5986,-10.5923,-10.5984,-10.5992,-10.5894,-10.5927,-10.5833,-10.5853,-10.5802,-10.5936,-10.5887,-10.5946,-10.5931,-10.6057,-10.6046,-10.6484,-10.6534,-10.6106,-10.611,-10.6114,0,-10.6223,-10.6294,-10.6223,-10.6243,-10.6222,-10.6258,-10.6267,-10.6151,-10.6167,-10.6135,-10.619,-10.6212,-10.6223,-10.6283,-10.6215,-10.6229,-10.6178,-10.6331,-10.618,-10.6209,-10.6179,-10.6175,-10.6181,-10.6362,-10.6368,-10.6372,-10.6375,0,-10.6598,-10.6547,-10.6565,-10.6568,-10.6582,-10.6579,-10.6567,-10.6592,-10.6466,-10.6492,-10.6522,-10.6531,-10.6549,-10.6572,-10.657,-10.6542,-10.6439,-10.6423,-10.6452,-10.6485,-10.6515,-10.6499,-10.603,-10.6414,-10.641,-10.6407,-10.6405,-10.6403,-10.6884,-10.694,-10.6897,-10.6921,-10.6898,-10.6889,-10.6932,-10.6873,-10.6896,-10.69,-10.683,-10.6876,-10.6841,-10.6827,-10.681,-10.6844,-10.6774,-10.6816,-10.6826,-10.6838,-10.6858,-10.6511,-10.6843,-10.6842,-10.6841,-10.684,-10.6839,0,-10.7251,-10.7215,-10.7238,-10.7223,-10.7242,-10.714,-10.7121,-10.7144,-10.7184,-10.716,-10.7172,-10.7207,-10.7228,-10.7161,-10.7172,-10.7212,-10.7165,-10.7219,-10.7214,-10.7209,-10.6921,-10.6894,-10.7257,-10.7257,-10.7257,-10.7257,-10.7257,-10.7257,-10.7444,-10.7531,-10.7476,-10.755,-10.7513,-10.7554,-10.7551,-10.7542,-10.7521,-10.7565,-10.7581,-10.7536,-10.7493,-10.75,-10.7515,-10.7494,-10.7505,-10.7575,-10.7539,-10.7271,-10.723,-10.7191,-10.7165,-10.7579,-10.7579,-10.7823,-10.7826,-10.7828]}]]